Location: Canazei
(46.4667°N, 11.7667°E)
Time: 17:29:44
(UTC+00:00)

BREEZE-M R/B - Pass Details

Date: 21 April 2021
Orbit: 311 x 4505 km, 49.7° (Epoch: 12 May)

Event Time Altitude Azimuth Distance (km) Brightness Sun altitude
Exits shadow 00:19:52 40° 66° (ENE) 1,020 4.3 -29.7°
Drops below altitude 10° 00:24:12 10° 70° (ENE) 2,823 6.9 -29.4°
Sets 00:28:06 0° 71° (ENE) 4,435 8.0 -29.2°
